Wind_Speed
28 28 28 27 27 27 28 28 28 29 29 29 29 30 30 30 30 31 31 31 31 30 30 29 28 28 27 27 26 26 26 27 27 27 28 28 28 29 28 29 29 29 29 28 28 27 27 27 27 26 26 26 27 27 29 30 31 31 30 29 24 18 16 18 23 26 26 29 35 39 39 40 42 40 37 34 32 32 31 31 32 32 33 35 33 29 28 29
30 30 30 30 29 28 27 27 28 28 29 29 30 30 30 30 30 31 31 31 30 30 29 29 28 27 27 26 26 26 26 26 27 27 28 27 28 28 28 29 29 29 29 28 27 27 27 26 25 25 24 25 26 27 28 29 30 30 30 28 21 17 18 22 27 28 29 33 38 40 40 42 43 42 39 34 30 31 32 33 34 34 33 35 32 27 27 30
31 31 32 32 32 32 31 30 29 29 29 29 30 30 30 30 30 30 30 30 30 30 29 28 28 27 27 26 26 26 26 26 27 27 27 27 28 28 28 28 29 29 28 28 27 27 26 25 23 23 23 24 25 26 27 28 29 29 30 27 17 18 22 28 32 31 33 37 40 41 40 42 43 43 40 34 31 32 33 34 35 34 35 36 31 25 27 30
30 30 30 30 31 32 32 32 31 30 29 29 30 30 30 31 31 30 30 30 30 30 29 28 28 27 27 26 26 26 26 26 27 27 28 28 28 28 28 29 29 29 28 28 27 27 25 23 22 22 22 23 24 25 25 26 28 29 30 23 16 22 27 31 35 35 37 39 41 41 41 43 44 44 40 35 33 32 32 34 34 35 36 33 26 24 27 30
31 31 30 30 30 30 30 31 32 31 31 30 30 30 31 31 31 30 30 30 30 30 29 29 28 27 27 26 26 26 26 27 27 27 27 28 28 28 29 29 29 29 28 27 27 26 24 22 22 21 21 22 24 24 23 26 28 29 28 21 19 25 28 32 37 39 39 40 41 41 41 44 45 45 41 36 32 31 32 33 34 36 35 28 22 23 26 27
31 31 31 31 31 31 31 31 31 31 31 31 31 31 31 31 31 30 30 30 30 30 29 29 29 28 28 27 27 26 26 27 27 27 28 28 28 28 29 29 29 28 27 27 26 24 23 22 21 20 20 21 23 23 23 26 29 29 27 21 21 25 28 33 38 41 41 41 41 41 42 44 44 45 43 38 32 31 32 32 34 36 32 25 21 23 25 25
30 31 31 31 31 31 31 32 31 32 31 31 31 31 31 31 31 30 30 30 30 30 30 30 29 29 28 28 28 27 27 27 26 27 28 28 28 28 28 28 28 28 27 26 25 24 22 21 20 20 20 21 22 22 24 28 29 28 26 21 21 26 29 34 39 43 43 42 41 42 43 43 44 45 45 40 35 32 31 32 33 33 31 26 24 24 25 25
30 30 30 30 30 30 31 31 31 31 31 31 31 31 31 31 31 31 31 31 30 31 31 31 30 30 30 29 29 28 28 27 27 27 27 27 27 27 28 28 27 27 26 25 24 23 21 19 20 20 20 21 22 23 25 28 30 27 24 22 24 28 31 35 41 44 45 43 42 42 41 41 44 45 44 40 37 34 32 32 32 31 31 28 26 25 23 23
29 29 29 29 29 29 30 30 30 31 31 31 31 31 31 31 32 32 32 31 31 31 31 31 31 31 31 30 30 30 29 28 27 27 27 27 27 27 28 27 26 26 26 25 24 22 20 21 22 22 21 22 23 23 26 29 29 26 24 26 27 29 32 37 42 44 46 45 44 44 42 40 43 44 42 40 37 34 32 31 31 30 28 27 25 24 23 21
30 29 29 29 29 29 29 29 29 29 30 30 30 31 31 31 32 32 32 32 32 32 32 32 32 32 32 32 31 31 30 28 28 27 27 27 27 28 28 27 27 26 26 25 23 22 22 23 24 23 22 23 23 23 27 28 28 27 26 27 28 29 31 35 41 42 43 45 45 46 43 40 43 43 41 40 37 34 32 31 30 28 26 25 23 23 24 22
31 30 30 30 30 30 29 29 29 29 29 30 30 30 31 31 32 32 32 33 33 33 33 33 33 33 33 33 33 32 30 28 28 28 28 28 27 28 28 27 27 26 26 24 23 23 24 25 23 22 22 23 23 24 26 27 27 28 27 27 27 28 30 34 38 39 40 43 43 45 45 42 44 43 41 40 37 34 32 30 30 29 27 26 26 26 26 24
32 32 32 32 31 31 31 30 30 30 31 31 31 32 32 32 33 33 34 34 34 34 34 34 34 34 34 35 34 33 31 29 29 28 28 28 28 28 28 28 27 26 26 25 24 25 26 25 23 22 23 24 23 24 26 26 27 28 28 27 27 28 29 30 35 36 38 41 42 45 47 45 44 43 41 39 35 31 30 29 30 31 31 31 31 30 29 27
32 32 32 32 32 32 31 31 31 31 32 32 33 33 33 34 34 35 35 35 34 34 34 34 35 35 35 36 35 33 32 30 30 29 29 29 29 28 27 27 27 26 26 26 26 26 26 25 24 24 24 23 23 24 25 25 26 26 28 27 25 27 27 26 31 35 36 39 41 45 48 46 44 42 39 36 32 29 27 27 29 30 31 32 33 32 30 27
30 30 30 30 30 30 30 30 30 30 31 31 32 32 33 33 34 35 35 35 35 34 34 34 35 35 35 36 36 34 33 32 31 30 30 28 28 27 27 27 26 26 27 27 27 27 27 26 25 24 24 23 24 24 24 24 25 25 26 26 24 26 25 23 28 33 35 36 38 45 49 45 44 42 38 34 30 26 25 25 26 26 26 26 29 30 28 25
29 28 28 28 28 28 28 28 28 28 29 29 29 30 31 31 32 34 34 34 34 34 34 34 34 34 34 36 36 35 34 33 31 30 29 27 27 28 28 28 27 26 27 28 28 29 28 28 26 24 23 24 24 25 24 24 25 24 25 25 23 24 23 22 26 30 32 33 36 43 49 47 44 42 37 34 31 28 27 27 26 25 22 23 25 26 24 22
28 28 28 28 28 28 28 28 28 28 28 28 28 28 29 29 30 32 32 32 33 33 33 33 33 34 34 35 36 35 35 33 32 31 28 27 28 28 28 28 27 26 27 28 29 30 29 28 26 24 24 25 25 25 25 25 25 24 25 23 23 24 22 22 24 26 29 31 34 40 46 48 46 43 39 36 35 33 32 29 26 24 21 23 25 24 21 18
28 28 28 28 27 27 28 28 28 28 28 28 28 29 29 29 29 30 30 31 31 32 32 32 33 33 33 34 34 35 35 34 32 30 28 28 28 28 27 27 28 27 28 30 30 30 30 28 26 25 25 25 26 26 27 26 24 23 23 23 22 23 23 22 22 25 28 31 33 37 44 47 46 44 41 39 37 35 33 29 27 24 22 24 25 23 20 17
28 28 27 27 27 27 27 28 28 28 29 29 29 29 29 29 29 29 30 30 30 31 31 31 32 32 33 33 33 34 35 34 32 31 29 28 28 27 27 28 29 28 29 30 30 30 30 28 26 26 24 25 26 28 28 26 23 22 23 22 22 23 24 23 22 25 30 33 35 37 41 44 44 43 41 38 36 34 32 29 26 24 23 25 26 23 19 16
27 27 27 27 27 27 27 28 29 29 30 30 30 30 30 29 29 29 30 30 30 30 31 31 31 31 31 31 32 33 34 34 33 32 30 28 27 26 26 27 28 29 29 29 29 30 29 28 27 24 21 22 26 29 29 27 25 24 24 24 23 23 23 22 23 26 30 32 34 35 38 39 39 38 35 33 33 32 31 28 26 25 25 27 26 23 18 14
27 26 26 26 26 26 27 28 29 30 31 31 30 30 30 30 30 30 30 30 30 30 32 32 31 30 30 30 31 32 32 32 32 32 30 28 26 25 25 26 27 28 29 28 29 29 29 29 25 20 17 20 24 26 28 28 28 27 26 25 24 23 22 21 22 25 27 29 30 31 34 35 35 32 29 30 32 32 30 28 27 26 26 26 25 22 19 15
26 25 25 25 25 26 27 28 29 29 30 30 29 29 29 29 30 30 29 29 29 30 31 32 32 30 28 28 30 31 31 31 31 30 29 28 26 25 24 25 25 26 26 27 28 29 30 27 20 16 18 20 23 25 27 28 29 29 27 25 24 22 20 19 21 23 26 27 26 28 31 32 32 29 28 30 32 32 30 28 26 25 25 26 25 23 21 17
25 24 24 24 25 25 26 27 28 28 28 28 27 27 28 28 28 28 28 27 28 29 29 30 31 30 26 27 30 31 31 29 27 28 28 27 26 25 24 23 23 24 26 28 28 29 29 23 16 17 21 22 24 26 26 27 28 29 28 26 25 22 19 18 19 21 24 25 25 26 29 29 28 27 29 30 31 30 28 26 25 24 24 24 24 23 20 17
23 23 23 23 24 24 25 26 26 26 26 25 25 26 27 27 27 27 26 25 23 25 27 27 28 28 24 25 27 30 30 26 25 26 26 25 25 25 24 22 22 23 25 27 28 29 26 20 19 23 23 23 24 25 25 26 27 28 28 26 25 23 21 20 19 20 24 24 23 24 28 27 24 25 28 27 26 25 25 25 25 26 25 23 23 21 18 16
22 22 22 22 23 24 24 24 24 24 24 24 24 25 27 27 26 25 25 23 19 19 25 25 25 23 20 22 25 28 29 26 24 24 23 22 23 25 24 22 21 22 23 25 28 28 23 22 24 24 23 22 23 23 24 24 24 26 27 25 23 23 24 23 21 23 26 25 23 24 27 26 22 25 27 25 23 23 23 25 27 28 26 25 24 20 17 17
21 21 21 21 22 23 23 23 23 22 23 23 23 25 27 26 25 24 24 23 16 15 20 23 22 21 20 22 24 25 27 24 20 20 21 21 23 24 24 23 21 20 22 24 28 27 22 24 26 23 22 23 22 22 22 22 23 24 24 23 22 22 24 25 24 25 27 25 25 27 29 26 22 26 29 25 23 22 23 26 28 29 27 25 22 16 15 18
21 22 21 21 23 24 23 23 22 22 22 22 23 26 26 25 24 24 24 23 17 14 17 19 20 19 19 20 21 23 26 22 19 21 22 21 23 25 25 23 20 19 22 25 28 26 22 26 26 22 22 22 21 21 21 22 22 22 21 21 22 22 23 26 26 27 26 25 26 28 29 27 22 27 31 27 25 24 22 24 26 27 26 23 17 13 14 15
22 22 22 21 23 24 23 23 23 23 23 22 24 26 25 24 24 24 24 22 18 16 16 17 18 16 17 19 20 22 23 21 21 23 22 21 23 25 25 23 19 19 22 26 26 22 23 26 25 22 23 22 21 21 21 22 21 21 22 22 23 24 25 27 27 28 27 26 28 27 27 26 22 26 30 28 26 25 21 22 24 25 26 23 18 15 14 13
22 22 22 21 23 24 23 23 23 23 23 23 24 25 24 24 24 23 22 19 15 14 15 16 17 17 18 18 18 20 22 22 22 23 23 23 24 25 25 22 19 20 24 26 23 22 25 26 24 24 26 23 21 22 23 23 21 22 23 23 25 25 25 26 27 28 28 29 30 27 24 25 24 25 29 29 28 24 19 19 22 24 24 23 21 18 17 14
22 23 22 21 23 24 23 23 24 24 23 23 24 24 23 24 24 22 21 17 13 14 15 15 16 18 20 19 18 19 21 21 22 22 23 23 23 24 24 22 21 23 26 25 22 24 25 25 26 27 26 23 22 24 25 23 22 22 23 24 26 26 25 25 26 28 30 32 31 27 22 24 26 26 28 30 29 25 19 17 21 23 25 26 24 21 19 15
23 23 23 22 23 24 23 22 23 23 22 23 23 23 23 23 22 20 17 15 15 17 19 19 18 18 19 19 20 20 20 21 23 23 21 20 20 22 24 24 24 25 26 24 22 24 25 25 28 26 22 23 24 25 25 23 23 24 24 25 26 26 26 26 26 28 32 33 30 27 21 22 27 29 28 29 29 26 21 18 20 23 27 29 27 24 20 15
23 24 23 22 22 22 22 21 22 22 20 21 22 22 22 21 20 17 14 15 18 19 20 21 21 19 19 20 22 22 22 23 25 25 23 21 20 21 22 22 23 23 25 22 20 23 25 26 26 22 21 23 24 25 25 24 25 25 24 24 25 26 26 27 27 30 34 32 28 27 24 24 28 29 29 30 29 27 24 22 22 22 25 29 30 27 23 18
23 23 22 21 20 20 20 19 21 21 18 19 21 21 20 20 18 15 14 17 19 19 21 22 22 22 22 21 22 23 25 25 25 26 25 22 21 21 20 20 21 23 24 21 19 22 25 25 23 22 22 23 23 25 26 26 26 26 24 23 24 24 23 24 27 31 34 32 29 29 28 28 30 29 29 30 30 29 26 26 25 24 23 25 27 28 25 23
22 21 20 21 19 19 19 18 20 20 18 18 20 21 20 19 17 14 16 19 20 20 21 22 23 25 26 24 23 23 24 26 26 25 24 24 23 23 22 22 23 23 23 22 22 25 25 24 23 22 22 23 23 25 27 27 26 24 22 21 21 19 18 21 25 29 34 34 32 30 29 32 33 31 30 30 30 29 28 28 28 27 25 25 26 27 27 26
20 19 19 20 19 18 18 18 19 21 20 19 20 21 20 19 17 17 20 21 22 22 22 22 24 26 27 27 26 25 24 25 26 25 24 24 24 24 24 25 24 23 23 24 25 26 25 24 23 22 23 24 23 23 24 25 23 19 18 18 19 19 18 19 20 23 29 35 36 33 31 35 36 33 32 31 31 31 31 30 30 30 29 28 28 29 30 29
18 19 19 20 19 18 18 18 18 20 20 19 20 20 19 18 18 20 22 23 23 23 23 24 26 27 28 28 28 28 27 25 26 27 26 25 24 24 24 23 23 23 24 25 25 25 25 25 23 23 24 24 22 20 21 22 20 19 19 20 20 21 21 20 19 19 23 31 36 36 35 36 35 34 33 33 33 33 33 34 34 34 33 33 34 35 35 32
18 19 19 18 18 17 17 17 17 18 19 19 19 19 19 19 20 21 23 24 25 24 23 26 28 29 29 29 29 30 29 26 27 27 26 26 25 24 23 24 25 26 26 26 25 26 26 24 24 26 25 23 21 20 19 20 21 21 22 21 20 21 23 22 22 22 22 27 35 38 37 36 34 34 33 32 31 32 32 33 35 37 36 35 36 40 38 33
17 19 18 16 15 16 16 16 16 17 18 18 18 18 19 20 21 22 22 24 25 24 24 28 30 31 31 31 31 31 30 29 29 28 26 27 27 26 25 25 26 28 28 28 26 26 25 24 25 27 25 22 21 21 20 21 23 24 22 21 21 22 25 25 24 23 24 27 34 39 38 37 35 35 34 32 30 29 28 28 31 35 34 30 30 36 37 32
17 17 14 13 14 15 14 14 15 16 16 17 18 18 19 21 22 22 23 24 24 24 25 28 32 33 32 32 33 32 31 30 30 29 27 27 27 26 26 26 26 28 29 28 26 25 24 24 25 26 24 22 23 23 22 22 25 27 24 23 24 24 26 27 26 26 26 28 35 39 39 39 37 36 35 34 32 29 27 25 26 28 28 25 25 30 31 28
15 14 12 12 13 13 13 13 14 15 15 17 18 18 20 21 23 23 23 24 24 24 25 29 32 34 34 33 33 32 31 30 30 30 28 26 24 23 25 26 26 27 28 27 26 26 24 24 25 26 25 24 24 25 26 25 27 29 28 27 27 27 28 28 28 29 29 31 36 40 40 40 38 37 37 37 35 32 30 27 23 23 26 23 22 27 26 23
14 12 10 10 11 11 11 12 12 13 14 15 17 18 20 21 23 23 23 23 24 25 26 29 33 35 36 36 35 33 32 31 31 31 31 28 24 22 24 26 27 28 29 28 27 26 25 25 26 27 28 26 25 26 29 28 27 29 30 29 28 28 30 30 30 31 32 34 38 41 42 40 38 37 38 38 37 34 33 32 27 24 26 24 23 27 26 22
12 10 9 9 9 9 9 9 11 12 13 15 16 18 19 21 23 24 23 23 24 26 27 29 32 36 38 38 37 35 34 33 33 33 33 31 27 25 24 25 26 28 30 29 28 27 27 27 27 28 29 28 27 28 29 29 28 30 31 31 29 28 28 29 30 30 33 35 38 40 40 38 36 36 37 37 37 36 33 31 28 27 29 27 26 28 25 20
10 8 8 8 7 7 7 8 9 11 13 15 17 18 19 21 23 24 24 24 26 27 28 29 31 35 39 40 39 38 37 36 34 34 34 33 31 28 26 25 26 28 29 29 29 29 29 28 27 28 29 29 29 30 29 30 30 30 32 33 31 28 28 29 29 28 30 34 36 36 35 33 32 32 33 34 34 32 30 27 26 28 30 28 26 27 24 20
9 7 7 7 6 6 7 8 9 11 13 15 17 19 20 22 23 24 25 26 27 29 29 30 31 33 36 39 41 41 40 39 37 35 35 35 34 31 29 27 27 28 29 29 30 31 32 30 28 28 29 30 31 31 30 30 30 30 32 34 33 31 29 30 28 26 27 30 32 33 32 31 30 28 28 28 27 27 26 25 23 22 25 24 23 25 24 21
8 7 7 6 5 6 7 8 9 11 13 14 17 19 20 20 20 20 22 23 25 27 29 30 31 32 34 36 39 40 40 40 40 39 38 39 38 35 32 29 28 28 28 27 28 28 29 31 31 29 30 32 32 33 32 32 32 31 32 34 34 33 31 30 29 27 27 27 28 31 32 31 29 26 24 23 23 24 25 24 22 22 26 27 24 23 22 20
8 7 6 6 5 6 8 9 10 12 14 15 17 18 17 15 14 14 16 17 19 22 25 28 30 31 32 33 36 38 39 39 39 39 39 40 40 37 34 31 27 27 27 27 26 25 24 27 31 31 32 34 34 33 33 32 32 32 32 33 34 34 33 31 30 30 30 28 27 29 30 30 28 25 23 22 22 23 23 23 23 23 24 24 21 21 22 22
8 6 6 5 5 7 9 9 11 13 14 16 17 16 15 13 11 12 13 15 16 17 20 23 26 28 30 31 32 35 38 39 38 38 38 40 40 38 36 33 28 25 25 25 25 24 22 24 28 30 31 34 35 34 33 33 32 32 33 34 34 35 34 33 32 32 32 31 30 30 30 29 27 25 23 23 23 23 22 22 22 21 22 22 20 19 21 21
8 6 5 4 5 7 9 9 10 12 14 15 16 15 15 14 12 12 13 14 15 16 18 19 21 24 27 28 29 31 34 37 38 38 39 39 39 38 37 35 32 27 23 23 22 22 22 22 25 27 30 33 35 35 35 34 33 33 33 33 34 35 35 34 34 33 32 32 31 30 29 28 26 25 25 24 23 23 21 20 18 17 18 19 18 18 20 20
8 6 4 4 6 7 8 9 10 11 13 15 15 13 13 14 12 12 12 12 13 14 16 18 20 22 24 26 28 28 30 34 36 38 40 40 39 39 37 36 35 33 29 24 22 21 22 22 23 26 29 31 34 36 36 36 35 35 34 33 34 36 36 36 35 33 32 32 31 30 30 27 26 26 26 24 23 22 22 22 20 18 17 16 16 16 17 17
7 5 3 4 6 7 8 8 10 11 12 14 14 11 9 10 10 10 11 11 13 14 15 17 19 21 23 26 28 29 29 31 33 36 39 40 40 40 37 34 32 33 33 29 25 23 23 22 21 23 26 29 32 34 36 36 37 36 35 34 34 36 37 37 36 35 34 34 33 32 31 29 28 27 25 22 21 21 21 21 21 21 21 19 18 17 16 14
6 3 2 4 6 7 8 9 11 11 11 12 13 11 8 8 9 9 10 11 13 14 15 16 17 20 23 24 27 31 32 31 32 33 36 39 41 40 38 35 30 27 27 27 26 25 24 22 20 22 26 29 31 32 34 36 37 38 38 36 35 36 39 40 39 37 37 36 36 35 33 32 31 30 26 23 22 21 21 22 23 25 25 24 23 23 21 19
4 2 3 5 5 6 8 9 11 11 11 11 11 11 9 9 11 12 11 11 13 14 15 15 15 16 20 22 25 29 33 34 33 33 34 36 39 40 39 38 35 29 25 23 23 24 24 23 21 22 27 30 30 32 35 36 37 37 39 39 37 36 38 41 42 40 38 38 38 38 36 34 33 32 29 26 25 24 24 23 25 28 27 25 25 24 22 21
4 3 4 5 5 5 6 8 9 10 11 11 10 10 10 10 11 13 12 12 13 14 14 14 13 14 17 20 21 24 29 33 33 32 32 33 36 39 39 38 37 33 28 23 21 22 23 23 24 24 27 28 29 32 36 38 39 39 38 39 39 36 36 39 42 42 40 40 40 39 38 36 34 31 29 27 26 25 24 23 24 27 27 25 24 23 22 22
Wind_Direction
252 252 253 254 255 255 256 256 256 256 256 256 256 256 256 256 258 259 261 263 265 266 267 267 268 269 270 271 272 273 274 275 276 277 278 278 279 279 280 279 278 277 277 276 276 275 275 274 274 272 269 267 263 260 259 258 257 258 255 251 244 224 211 210 218 221 217 213 210 212 215 216 217 221 221 221 223 226 233 240 243 245 249 252 252 253 259 263
251 252 253 254 255 256 256 257 257 257 257 256 256 256 255 255 257 258 260 262 263 264 265 266 266 267 268 269 270 271 273 274 275 276 277 277 278 278 278 278 277 277 276 276 275 275 275 274 274 271 269 265 262 260 258 257 257 257 254 250 238 213 202 199 208 213 209 207 207 210 213 216 218 219 220 221 223 228 234 238 241 244 248 254 253 252 257 262
252 253 253 254 254 255 255 256 257 256 256 256 256 255 255 255 256 257 259 260 262 262 263 264 264 265 266 267 269 270 272 273 274 275 276 277 277 277 276 276 275 276 276 275 275 275 275 274 272 269 266 263 261 260 257 256 256 255 252 249 227 206 203 195 200 206 203 203 205 209 211 214 219 220 220 222 223 229 235 238 242 245 248 253 257 259 261 264
253 253 253 254 254 254 254 254 255 255 255 255 256 256 256 256 256 257 258 259 260 261 261 262 263 264 265 266 268 269 271 273 274 275 276 276 275 275 274 274 274 275 275 274 274 275 274 272 269 266 264 261 260 259 255 253 254 251 250 245 214 206 205 193 198 203 202 204 205 208 212 215 219 220 221 224 227 232 236 240 244 247 249 253 260 264 264 264
254 254 254 254 254 254 254 253 253 253 254 255 255 256 256 256 256 257 257 258 259 259 260 261 262 263 264 266 267 269 271 272 274 275 275 275 274 274 274 274 274 274 274 273 273 274 273 270 267 265 262 259 259 257 252 251 251 248 247 238 212 209 205 196 200 203 204 206 207 209 213 216 219 221 222 226 232 236 239 242 246 250 253 256 261 262 263 264
255 254 254 254 254 254 254 254 254 253 253 254 255 255 256 256 256 256 257 258 258 259 259 260 261 262 263 264 266 268 270 272 274 274 274 274 274 274 274 274 273 273 272 272 272 272 269 267 266 263 259 255 254 252 248 248 249 246 244 234 214 210 205 201 204 204 206 208 209 212 215 218 221 224 227 229 232 237 241 245 248 253 257 258 261 266 270 268
255 254 254 254 254 254 254 254 254 254 254 254 254 255 255 255 256 256 257 257 258 259 259 259 260 261 262 263 265 266 268 271 273 273 274 274 273 273 272 272 271 271 270 270 270 269 266 265 264 260 254 251 251 248 245 247 248 245 242 233 217 212 205 204 207 206 207 210 211 214 216 220 223 227 230 230 232 236 241 246 250 255 258 259 264 271 278 275
255 254 254 254 254 253 254 254 254 254 254 254 254 255 255 256 256 257 257 257 258 259 259 260 260 260 261 261 262 264 266 269 270 271 272 272 271 270 270 270 270 270 269 267 267 265 264 261 258 254 250 249 247 243 243 247 248 244 240 232 220 214 205 204 209 207 208 210 211 213 215 219 223 228 232 233 235 236 239 245 249 254 257 261 264 269 278 278
254 254 253 253 253 253 253 253 253 253 253 254 254 255 256 256 257 257 257 258 258 259 259 260 260 260 260 260 260 262 264 266 267 268 269 269 268 268 267 268 268 267 266 264 264 262 258 254 252 251 247 246 247 243 243 247 248 243 238 232 224 217 209 206 212 211 210 212 214 215 215 217 222 227 232 235 237 238 240 245 250 253 255 260 262 265 270 273
254 253 253 252 252 252 252 252 253 253 253 254 255 256 256 257 257 258 258 258 259 259 259 259 259 259 259 259 258 259 261 262 263 264 265 265 265 266 266 266 266 265 263 260 258 255 253 252 252 252 249 248 248 244 245 248 248 245 238 234 229 223 216 211 214 215 213 214 217 218 217 218 223 226 229 235 238 241 243 245 250 253 254 256 258 260 263 268
255 254 254 254 253 253 253 254 254 255 255 255 256 256 257 257 258 258 258 258 258 259 259 259 259 258 258 257 257 256 258 259 260 261 262 262 262 263 264 264 264 263 261 256 251 249 251 253 252 249 247 248 247 244 246 247 247 246 241 236 233 228 223 215 214 216 218 219 220 222 221 220 226 229 231 238 242 247 249 250 253 256 256 257 259 261 263 266
256 256 256 256 256 256 255 255 256 256 256 256 256 256 257 257 257 257 258 258 258 258 258 258 258 258 257 256 255 256 255 254 256 257 258 259 259 259 260 262 262 261 258 252 246 247 250 251 248 244 244 246 246 246 247 247 246 247 245 240 236 233 229 223 218 219 222 223 225 227 226 224 229 234 237 241 246 253 256 258 258 257 259 260 263 265 263 261
258 258 259 259 259 259 259 258 258 258 258 258 257 257 257 257 257 257 257 257 258 258 258 258 258 257 257 256 255 254 253 252 252 252 253 255 257 257 258 259 260 257 254 248 244 247 250 248 244 241 243 244 245 246 247 248 247 248 250 245 240 237 234 230 225 224 226 227 229 232 232 230 231 235 238 242 249 255 257 259 259 258 259 260 262 263 260 256
259 260 260 260 261 261 261 260 260 259 259 258 258 258 258 258 258 257 257 257 258 257 257 257 258 257 256 256 254 252 251 251 250 250 252 255 256 256 256 256 256 253 249 246 243 246 247 246 243 241 242 242 242 245 246 249 249 249 252 250 246 242 237 234 231 229 229 230 231 234 237 236 235 236 235 241 249 252 257 261 261 260 259 255 256 255 254 253
259 259 260 260 260 261 261 260 259 259 258 258 258 258 258 258 259 258 258 259 258 258 258 258 259 258 257 256 255 252 250 250 250 250 251 252 252 253 254 255 253 250 247 245 242 243 245 245 243 241 242 241 241 244 244 248 249 248 249 250 249 244 239 237 235 232 232 234 234 236 239 240 240 240 237 241 247 252 263 267 263 260 254 247 247 247 246 249
258 259 259 260 260 261 261 261 260 260 260 260 260 260 260 260 260 260 261 261 261 261 261 261 261 259 258 257 255 253 250 249 249 249 250 249 250 253 254 255 253 248 244 241 239 241 244 244 242 240 240 240 241 243 243 244 247 249 250 250 249 245 238 234 234 234 233 235 237 238 240 241 242 244 245 246 249 257 266 267 261 256 248 242 244 245 242 243
259 259 260 260 260 261 262 263 263 263 263 263 263 262 262 262 263 263 264 264 264 264 264 265 264 262 260 258 256 254 251 249 248 248 249 249 250 252 253 253 251 245 241 239 238 239 241 242 241 241 241 241 240 241 241 242 245 251 252 249 247 245 240 232 227 231 232 231 234 236 238 239 241 244 247 250 253 257 261 259 256 251 244 241 243 244 241 241
259 260 261 261 261 262 263 264 265 266 265 264 264 265 265 265 266 267 267 267 267 267 268 268 266 264 262 260 257 254 251 249 247 247 248 248 249 251 251 252 251 246 242 240 238 237 239 241 241 241 243 244 243 241 241 243 245 249 249 244 240 239 238 231 221 223 229 228 228 232 235 237 238 240 243 247 250 251 251 249 248 245 242 240 240 241 241 241
259 260 262 262 263 264 265 266 266 266 265 265 265 266 267 268 268 267 268 268 268 268 267 267 266 265 263 260 256 253 251 249 247 246 247 247 248 249 250 251 251 248 243 239 237 237 238 239 239 242 247 249 247 243 242 243 244 244 245 242 236 234 234 231 223 224 230 231 229 232 236 237 238 238 239 241 241 241 241 240 238 238 239 240 240 239 238 236
261 262 263 264 265 265 266 266 265 265 265 265 266 268 269 269 268 267 267 268 268 267 264 263 262 262 260 258 255 253 251 249 247 246 246 247 248 249 249 249 249 247 242 237 235 236 237 237 237 243 248 249 248 245 242 242 241 241 243 243 238 235 234 231 229 231 234 236 235 236 238 239 239 237 234 233 233 234 233 232 234 236 238 242 243 241 237 231
263 265 266 266 266 266 266 265 265 265 265 267 268 269 269 269 269 268 267 267 267 266 264 262 260 260 259 257 255 252 249 248 247 246 246 247 247 248 248 248 248 245 240 236 234 233 235 234 235 242 244 243 245 244 242 241 240 241 244 244 240 237 234 232 232 232 235 237 238 240 241 240 238 234 228 228 231 233 231 230 233 236 239 243 245 244 240 236
266 267 267 267 267 266 265 265 265 265 266 268 269 270 270 269 269 269 269 269 269 267 265 264 261 259 255 252 253 252 250 248 246 247 246 246 247 246 245 246 245 241 236 235 233 231 232 232 232 239 239 238 241 243 243 243 240 241 244 246 243 239 236 234 234 233 236 238 236 240 244 242 238 232 226 226 230 232 232 231 232 234 237 242 244 245 246 249
267 267 267 266 266 265 265 265 265 266 267 268 270 270 270 270 269 270 270 270 272 270 266 264 262 260 256 250 252 253 249 244 242 244 245 245 247 248 247 245 242 238 236 234 233 232 231 231 232 236 237 238 241 244 244 243 241 240 244 246 244 243 241 236 234 233 236 241 239 241 247 246 239 231 224 221 222 224 228 228 228 230 231 235 240 243 248 256
267 266 266 265 265 264 264 265 266 267 268 269 270 270 269 269 269 271 271 270 273 272 268 266 262 260 254 245 247 251 247 241 239 242 243 243 246 248 250 249 243 238 234 232 233 232 229 230 234 235 239 241 243 245 246 244 242 240 242 245 244 244 244 240 234 231 234 240 242 244 248 247 236 222 213 209 211 215 221 225 226 228 226 228 235 240 246 253
266 265 265 265 265 264 265 265 266 267 268 269 270 269 268 269 271 271 271 270 272 273 269 268 263 258 251 243 243 247 247 242 237 238 238 237 242 245 247 248 245 238 230 228 230 229 226 231 235 235 238 242 243 245 245 244 241 240 241 243 242 241 242 242 238 236 238 238 239 242 246 247 233 210 201 202 210 212 217 226 229 229 227 227 232 240 252 255
265 265 265 266 266 265 266 267 267 267 268 269 268 269 270 271 273 272 270 271 273 270 267 267 263 258 252 243 234 236 242 241 233 232 232 231 236 242 246 245 242 235 230 230 230 225 222 231 235 235 238 240 243 245 245 244 242 240 240 238 236 235 236 239 237 237 238 233 231 239 245 244 226 204 199 204 214 214 218 229 230 226 226 226 225 230 243 244
265 266 266 266 266 266 266 268 268 267 268 269 269 270 272 273 272 271 271 273 275 271 265 261 257 252 244 239 229 226 234 237 232 231 232 231 233 239 242 242 238 234 233 233 232 225 222 229 233 234 236 236 238 242 242 241 240 238 238 234 231 230 232 236 236 235 234 226 223 232 243 240 218 203 204 210 217 218 224 234 232 228 228 224 219 221 225 217
266 267 266 267 268 267 268 269 269 269 269 269 269 270 271 271 269 269 270 272 273 267 258 251 248 242 234 231 225 221 226 232 232 231 231 231 232 234 237 237 232 231 235 233 230 225 222 227 231 231 233 232 233 238 238 237 235 233 233 231 229 229 230 235 236 234 229 222 218 222 235 234 216 205 210 213 216 219 227 235 232 232 230 222 220 223 221 215
266 267 267 268 270 270 270 270 270 270 270 269 268 268 268 266 265 267 267 266 261 252 247 243 244 242 234 222 213 214 221 226 228 228 230 230 230 230 232 231 225 226 234 231 224 224 224 225 228 230 232 233 232 235 237 236 231 226 225 227 229 229 230 232 234 232 226 219 216 216 225 229 216 207 210 213 216 219 226 231 229 230 228 225 227 230 231 228
267 268 269 270 270 271 271 271 270 269 269 268 268 266 266 265 264 264 264 259 248 242 242 241 241 242 237 222 209 206 211 217 221 221 221 220 220 223 226 229 226 227 233 231 222 224 225 224 227 230 231 233 233 234 236 236 232 228 225 226 228 229 230 231 230 229 224 221 217 211 214 224 219 211 211 214 219 222 225 229 230 230 229 230 234 237 239 236
268 269 270 270 269 270 270 269 268 268 266 266 266 265 264 263 263 261 256 251 245 242 242 240 235 234 233 226 215 206 203 210 218 219 218 216 216 220 226 231 232 232 236 233 223 224 227 227 229 229 230 232 233 234 235 235 233 232 229 225 226 227 228 228 228 226 223 221 217 207 208 221 221 216 215 217 221 225 226 227 230 232 232 234 238 242 244 238
269 270 270 269 267 267 267 266 266 267 264 262 263 263 261 260 260 254 244 243 242 239 237 234 230 228 227 226 223 215 208 209 215 221 223 222 221 222 224 230 233 232 235 231 219 220 226 229 229 228 231 234 235 235 235 235 234 233 229 223 222 226 227 227 228 226 222 219 214 207 210 221 222 217 216 218 220 224 226 229 231 231 231 234 238 242 243 238
268 268 268 267 266 264 264 263 265 267 264 260 260 260 259 258 256 247 237 237 236 233 230 228 227 228 227 225 223 220 217 216 219 223 226 228 227 225 222 226 230 230 231 227 218 215 217 223 226 226 230 235 237 238 234 232 232 231 228 226 228 230 232 232 231 227 221 216 214 211 214 221 222 217 216 218 220 222 226 230 233 233 233 234 236 239 239 237
266 266 265 265 265 264 264 264 264 266 264 260 258 258 258 256 250 241 236 235 233 231 227 223 223 226 228 227 224 222 218 220 224 224 226 228 227 225 223 226 229 230 230 228 223 218 214 216 220 221 226 232 235 236 233 226 224 227 230 233 238 239 237 235 233 229 222 217 215 215 218 223 224 221 220 220 221 224 228 233 238 240 238 237 236 236 236 235
263 263 262 263 265 267 266 265 264 265 264 261 257 257 256 251 244 239 238 237 235 232 225 220 221 223 227 228 228 227 222 218 222 225 226 227 226 222 222 223 225 225 227 226 224 221 217 215 215 216 221 226 226 226 227 222 218 225 231 234 240 242 239 231 223 220 220 220 219 218 220 224 226 225 225 225 224 226 233 239 244 247 245 243 238 233 232 231
259 260 261 263 265 265 264 263 262 261 262 261 259 256 253 249 244 241 241 240 238 234 223 218 220 222 225 227 227 229 226 221 223 226 227 228 226 221 220 222 223 221 221 221 221 220 217 212 211 214 215 218 218 216 216 216 216 224 230 234 238 239 233 225 217 214 216 220 221 220 222 226 228 231 232 231 227 228 235 240 243 246 249 251 239 224 222 225
257 258 260 262 263 263 262 261 261 259 260 260 258 256 253 250 247 245 244 243 241 236 224 218 221 222 224 227 228 227 228 227 227 227 228 230 228 224 223 225 226 225 221 218 218 220 217 208 207 212 211 213 216 209 203 206 211 218 224 229 232 228 223 221 217 215 217 222 222 222 225 228 231 235 238 239 236 232 237 242 242 242 246 249 233 212 208 212
255 256 258 260 260 260 260 261 261 261 261 260 258 257 254 252 250 247 246 245 244 240 228 221 223 224 223 228 232 231 230 229 227 224 224 228 230 227 227 227 226 228 227 219 216 221 219 208 207 210 207 210 214 206 197 201 208 210 210 218 223 220 220 222 221 218 219 223 225 225 227 229 233 237 240 242 241 236 237 243 243 236 235 241 231 208 198 200
253 254 255 255 256 260 263 264 265 264 264 263 261 259 255 253 253 250 248 247 245 241 233 226 227 227 224 226 233 235 233 230 227 222 219 223 226 225 227 227 223 224 226 221 216 221 221 211 207 208 205 208 212 205 200 204 209 208 205 211 216 215 215 220 224 225 224 226 228 228 229 232 235 239 242 244 244 241 237 241 249 238 228 232 227 208 198 200
252 252 250 249 253 260 265 267 268 268 267 265 263 260 256 254 253 252 249 248 246 243 237 231 230 229 227 226 227 232 235 234 231 227 224 224 222 220 223 227 223 220 222 222 219 222 224 216 207 207 209 209 210 208 205 206 209 208 206 209 213 214 216 219 223 226 227 229 231 233 234 236 238 240 243 245 246 247 242 243 254 248 227 223 220 214 216 217
249 249 248 247 249 254 262 271 277 279 279 276 272 268 264 260 257 255 251 247 244 242 239 235 233 231 230 229 227 228 233 236 236 234 232 231 226 221 223 228 227 222 222 225 225 223 226 222 211 209 213 211 211 212 210 209 210 210 209 212 214 215 218 222 226 228 228 228 231 235 238 240 241 242 244 247 249 252 249 246 251 248 235 228 222 222 228 228
242 242 243 244 246 256 271 282 288 289 288 286 282 276 270 265 262 259 254 247 243 241 238 236 235 233 232 231 231 230 232 235 237 237 237 236 233 230 228 228 228 226 223 227 228 225 225 225 216 212 215 213 212 216 215 212 213 212 214 217 218 217 218 222 226 229 230 228 230 234 237 239 240 241 244 247 250 252 249 248 251 244 230 223 222 227 232 228
232 227 230 238 249 266 282 291 294 292 291 290 286 280 273 268 264 261 256 251 247 243 240 237 236 236 235 234 234 233 234 235 236 236 238 240 239 237 235 231 230 228 225 227 230 228 227 226 219 213 215 214 214 217 217 215 215 216 217 219 220 218 219 222 226 230 232 231 230 233 236 238 240 242 245 248 249 248 247 250 252 236 220 221 230 234 231 223
222 216 224 238 255 274 287 297 301 302 302 298 292 285 278 272 268 263 260 256 252 249 245 241 238 237 237 237 236 234 234 234 234 235 238 242 242 241 240 237 236 232 229 229 232 233 231 228 222 215 213 214 216 218 219 217 217 218 220 221 221 219 218 220 225 231 234 233 232 234 237 239 241 245 249 251 250 250 250 251 250 244 239 240 239 230 222 218
214 214 230 248 270 284 294 303 309 314 313 309 302 290 278 272 271 271 271 268 263 257 252 248 244 241 239 238 238 236 233 232 233 233 236 240 242 242 239 238 239 238 235 233 233 234 234 228 223 218 214 214 219 222 222 221 220 221 223 224 223 221 219 218 220 227 232 233 233 235 237 239 241 245 249 251 250 250 253 253 253 254 247 237 228 219 215 216
210 214 234 262 288 297 302 308 313 316 314 313 310 295 274 263 265 273 278 277 272 266 259 254 250 246 243 240 239 239 236 232 231 231 233 236 239 240 237 236 237 240 241 239 234 232 232 229 226 224 220 219 222 226 227 225 223 223 225 226 226 224 222 220 220 224 229 234 236 237 237 238 242 247 248 247 247 249 253 252 249 245 234 228 226 217 210 211
211 216 237 268 287 291 297 304 311 315 314 316 316 299 271 257 261 273 278 275 271 267 263 258 253 249 245 241 238 239 238 235 232 231 232 234 236 238 238 236 236 239 243 243 239 235 234 234 233 233 231 226 225 227 229 229 226 224 224 226 227 228 226 223 222 224 227 231 236 239 240 242 246 250 249 246 245 247 251 252 246 237 229 231 230 216 207 211
212 217 235 266 281 287 294 304 312 318 321 325 326 309 272 257 263 275 278 273 269 268 266 263 257 250 244 239 235 234 236 237 235 232 233 234 235 236 238 238 239 241 244 248 248 244 243 243 242 241 240 234 228 228 230 232 231 229 226 224 226 229 229 227 226 227 229 232 235 238 242 245 248 250 249 248 248 249 252 254 254 251 246 243 237 223 212 211
215 217 233 266 283 296 307 316 321 323 328 332 334 322 279 255 262 275 280 277 270 267 269 269 264 254 243 236 231 229 229 233 235 234 234 236 236 235 235 238 240 241 242 246 252 252 249 249 246 242 241 238 232 229 230 232 234 234 231 227 225 227 230 231 230 230 232 234 235 236 239 243 245 246 248 250 251 251 251 255 259 257 253 250 246 242 236 229
220 227 252 273 294 313 323 328 326 326 332 338 338 329 294 261 259 269 282 287 279 269 268 273 271 259 246 237 231 227 225 227 231 233 233 235 236 234 233 235 238 240 239 240 247 251 249 249 248 242 239 240 238 235 232 232 235 237 236 232 228 227 230 232 232 232 233 236 238 238 239 241 243 247 250 250 248 249 252 261 265 259 253 251 250 248 246 244
224 244 266 286 311 327 330 329 324 324 333 341 342 334 313 282 266 265 274 286 285 277 270 273 276 263 247 239 233 229 225 224 227 230 231 233 234 233 231 233 237 240 240 236 236 243 246 247 249 244 239 240 243 243 240 236 235 236 237 237 234 232 231 232 233 235 236 237 240 241 242 244 246 249 251 251 251 251 254 262 263 255 249 247 244 242 240 238
218 238 261 291 316 330 328 326 324 324 331 340 346 341 329 311 285 271 272 282 285 279 271 272 277 268 251 239 234 232 228 225 226 229 230 231 233 232 229 232 236 236 236 233 230 234 240 245 249 246 240 238 240 244 246 243 239 236 235 236 237 237 234 231 232 236 239 241 243 245 246 248 249 250 251 254 256 256 260 265 254 241 239 239 237 239 241 236
Height
5756 5757 5757 5758 5759 5759 5760 5760 5761 5761 5762 5763 5764 5764 5765 5766 5766 5767 5768 5769 5769 5770 5771 5771 5771 5771 5772 5772 5772 5772 5772 5772 5772 5772 5772 5773 5773 5772 5773 5772 5772 5772 5773 5772 5772 5772 5772 5773 5773 5773 5773 5774 5774 5774 5774 5774 5775 5776 5777 5779 5782 5784 5786 5788 5787 5788 5789 5790 5788 5787 5790 5791 5791 5793 5794 5794 5796 5798 5798 5798 5799 5801 5802 5802 5804 5806 5807 5807
5753 5753 5754 5755 5755 5756 5757 5757 5758 5758 5759 5760 5761 5761 5762 5763 5763 5764 5765 5766 5766 5767 5768 5768 5768 5769 5769 5769 5769 5769 5769 5769 5769 5769 5769 5770 5769 5769 5769 5769 5768 5769 5769 5769 5769 5769 5769 5770 5770 5770 5770 5770 5771 5771 5771 5771 5772 5774 5774 5776 5780 5783 5784 5784 5784 5785 5787 5787 5785 5785 5787 5787 5788 5790 5791 5792 5794 5794 5795 5796 5797 5798 5799 5799 5802 5804 5805 5804
5749 5750 5750 5751 5752 5753 5753 5754 5755 5755 5756 5757 5758 5758 5759 5760 5760 5761 5762 5762 5763 5764 5765 5765 5765 5766 5766 5766 5766 5766 5766 5766 5766 5766 5766 5766 5766 5766 5766 5766 5765 5765 5766 5765 5765 5766 5766 5767 5767 5767 5767 5767 5767 5768 5768 5769 5770 5771 5771 5774 5779 5780 5780 5780 5781 5783 5784 5783 5783 5783 5783 5784 5786 5787 5788 5789 5790 5791 5792 5793 5794 5796 5796 5797 5800 5802 5802 5802
5746 5746 5747 5748 5748 5749 5750 5751 5752 5752 5753 5754 5754 5755 5756 5757 5757 5758 5758 5759 5760 5761 5762 5762 5762 5762 5763 5763 5762 5763 5763 5763 5763 5763 5763 5763 5763 5763 5763 5763 5762 5762 5762 5762 5762 5762 5763 5763 5763 5763 5764 5764 5764 5765 5766 5766 5767 5767 5768 5773 5777 5776 5776 5777 5778 5779 5780 5781 5781 5780 5780 5782 5783 5785 5785 5786 5787 5789 5790 5791 5792 5793 5793 5795 5799 5800 5799 5799
5743 5743 5744 5745 5745 5746 5747 5747 5748 5749 5750 5750 5751 5752 5753 5753 5754 5755 5755 5756 5757 5758 5758 5759 5759 5759 5759 5759 5759 5759 5760 5759 5760 5760 5760 5760 5760 5760 5759 5760 5759 5759 5759 5759 5759 5759 5760 5760 5760 5761 5761 5761 5761 5762 5763 5763 5763 5763 5766 5771 5773 5773 5774 5775 5775 5775 5776 5778 5779 5779 5778 5779 5781 5782 5782 5783 5785 5787 5788 5789 5790 5789 5791 5794 5797 5797 5796 5796
5740 5740 5741 5741 5742 5743 5743 5744 5745 5745 5746 5747 5748 5748 5749 5750 5751 5751 5752 5753 5754 5754 5755 5755 5755 5756 5756 5756 5756 5756 5756 5756 5757 5757 5757 5757 5757 5757 5756 5756 5756 5756 5756 5756 5756 5756 5757 5757 5757 5758 5758 5758 5758 5759 5760 5759 5759 5760 5763 5768 5770 5771 5772 5773 5772 5772 5773 5775 5777 5776 5776 5777 5779 5780 5780 5780 5782 5784 5785 5786 5787 5787 5790 5793 5794 5794 5794 5794
5736 5737 5737 5738 5738 5739 5740 5741 5741 5742 5743 5743 5744 5745 5746 5746 5747 5748 5749 5750 5751 5751 5752 5752 5752 5752 5752 5753 5752 5753 5753 5753 5754 5754 5754 5754 5754 5754 5753 5753 5753 5753 5753 5753 5753 5753 5754 5754 5755 5755 5755 5755 5756 5757 5757 5756 5756 5758 5761 5765 5768 5768 5770 5770 5770 5770 5770 5772 5773 5773 5774 5775 5777 5778 5777 5778 5780 5782 5783 5784 5785 5786 5788 5791 5792 5792 5792 5792
5733 5733 5734 5734 5735 5736 5736 5737 5738 5738 5739 5740 5740 5741 5742 5743 5744 5745 5745 5746 5747 5748 5748 5748 5749 5749 5749 5749 5749 5750 5750 5751 5751 5751 5751 5751 5751 5750 5750 5750 5750 5750 5750 5750 5750 5750 5751 5752 5752 5752 5752 5753 5753 5754 5754 5753 5753 5756 5760 5762 5764 5764 5766 5767 5766 5766 5767 5768 5769 5770 5772 5773 5775 5776 5776 5778 5779 5780 5781 5782 5783 5785 5787 5788 5789 5790 5790 5790
5730 5730 5731 5731 5731 5732 5733 5734 5734 5735 5736 5736 5737 5738 5738 5739 5740 5741 5742 5743 5743 5744 5745 5745 5745 5745 5746 5746 5746 5746 5747 5747 5748 5748 5748 5748 5747 5747 5747 5747 5747 5747 5747 5747 5747 5748 5748 5748 5748 5749 5750 5750 5751 5752 5751 5750 5751 5754 5757 5758 5759 5761 5763 5763 5762 5763 5765 5766 5767 5767 5769 5771 5772 5774 5775 5776 5777 5779 5780 5780 5782 5783 5785 5786 5787 5788 5788 5788
5727 5727 5727 5728 5728 5729 5729 5730 5730 5731 5732 5732 5733 5734 5735 5735 5736 5737 5738 5739 5739 5740 5741 5741 5742 5742 5742 5742 5743 5743 5744 5744 5745 5745 5745 5745 5745 5744 5744 5744 5744 5744 5744 5744 5744 5745 5745 5745 5745 5746 5748 5748 5749 5749 5748 5749 5750 5752 5754 5755 5757 5759 5761 5762 5762 5763 5764 5765 5765 5766 5768 5770 5770 5771 5773 5774 5775 5777 5778 5779 5780 5781 5783 5784 5785 5785 5786 5786
5724 5724 5724 5725 5725 5726 5726 5726 5727 5727 5728 5729 5729 5730 5731 5731 5732 5733 5734 5735 5735 5736 5737 5737 5738 5738 5738 5739 5740 5740 5741 5741 5741 5741 5742 5742 5742 5741 5741 5740 5740 5741 5741 5741 5741 5741 5742 5742 5743 5745 5746 5746 5746 5747 5746 5748 5749 5749 5751 5753 5755 5757 5759 5760 5761 5763 5764 5764 5765 5765 5767 5768 5769 5770 5773 5774 5775 5777 5777 5778 5779 5780 5781 5782 5783 5783 5784 5784
5720 5721 5721 5721 5722 5722 5722 5723 5723 5724 5724 5725 5725 5726 5727 5727 5728 5729 5730 5730 5731 5732 5733 5733 5734 5734 5735 5735 5736 5737 5737 5738 5737 5738 5738 5738 5738 5738 5738 5738 5738 5738 5738 5738 5738 5738 5739 5739 5741 5742 5743 5743 5744 5745 5745 5746 5747 5747 5749 5751 5753 5755 5757 5759 5761 5762 5763 5764 5764 5764 5765 5767 5768 5770 5773 5774 5775 5776 5777 5777 5778 5778 5779 5780 5781 5781 5782 5782
5717 5717 5717 5718 5718 5718 5719 5719 5720 5720 5720 5721 5721 5722 5723 5723 5724 5724 5725 5726 5727 5728 5728 5729 5730 5731 5731 5730 5732 5734 5733 5734 5734 5734 5734 5734 5735 5735 5735 5735 5735 5735 5735 5735 5735 5735 5736 5737 5739 5739 5740 5741 5743 5743 5743 5744 5745 5746 5746 5748 5752 5753 5755 5758 5760 5761 5761 5763 5763 5762 5762 5765 5768 5770 5772 5773 5774 5775 5775 5776 5776 5776 5777 5778 5779 5779 5779 5780
5713 5714 5714 5714 5715 5715 5715 5716 5716 5716 5717 5717 5718 5718 5719 5719 5720 5720 5721 5722 5723 5724 5724 5725 5725 5726 5727 5726 5728 5730 5729 5730 5731 5730 5731 5731 5731 5732 5732 5732 5732 5732 5732 5732 5732 5732 5733 5734 5735 5737 5738 5740 5741 5741 5742 5742 5743 5744 5745 5746 5750 5751 5754 5757 5757 5758 5759 5761 5761 5760 5760 5763 5767 5768 5771 5772 5772 5772 5773 5773 5773 5774 5775 5776 5776 5776 5777 5779
5710 5710 5711 5711 5712 5712 5712 5713 5713 5713 5713 5714 5714 5715 5715 5715 5716 5716 5717 5718 5719 5719 5720 5721 5721 5722 5723 5722 5723 5726 5726 5726 5727 5727 5728 5728 5728 5728 5728 5728 5728 5728 5728 5729 5729 5729 5730 5731 5733 5735 5736 5737 5738 5739 5740 5741 5741 5742 5743 5745 5747 5749 5752 5755 5754 5755 5757 5758 5759 5757 5757 5761 5764 5766 5770 5770 5769 5770 5770 5770 5771 5772 5773 5773 5773 5774 5776 5778
5707 5707 5708 5708 5709 5709 5709 5709 5709 5710 5710 5710 5711 5711 5711 5712 5712 5712 5713 5714 5714 5715 5716 5717 5717 5718 5719 5718 5719 5721 5722 5723 5723 5724 5725 5724 5724 5725 5725 5725 5725 5725 5725 5726 5726 5726 5727 5728 5731 5732 5734 5735 5736 5737 5738 5738 5739 5740 5741 5743 5745 5746 5749 5751 5752 5753 5754 5755 5755 5755 5755 5758 5761 5764 5767 5767 5767 5767 5767 5767 5768 5769 5770 5771 5771 5772 5774 5777
5704 5704 5705 5705 5705 5706 5706 5706 5706 5706 5706 5707 5707 5707 5707 5708 5708 5709 5709 5710 5711 5711 5712 5713 5713 5714 5714 5715 5716 5717 5717 5719 5720 5721 5721 5720 5721 5722 5722 5722 5722 5722 5722 5722 5723 5724 5725 5726 5728 5730 5731 5733 5734 5735 5735 5736 5738 5739 5739 5741 5742 5743 5746 5748 5750 5750 5750 5750 5750 5750 5751 5753 5757 5761 5763 5763 5763 5764 5764 5765 5765 5766 5768 5768 5769 5771 5774 5776
5700 5701 5701 5702 5702 5702 5702 5702 5702 5703 5703 5703 5703 5703 5704 5705 5706 5706 5706 5707 5707 5708 5708 5709 5709 5710 5710 5711 5712 5712 5713 5715 5716 5717 5717 5717 5718 5718 5719 5718 5718 5718 5719 5719 5720 5721 5722 5724 5726 5727 5729 5731 5731 5732 5733 5735 5737 5736 5736 5737 5739 5740 5742 5745 5747 5745 5744 5745 5745 5745 5746 5749 5753 5757 5759 5759 5759 5760 5761 5762 5762 5764 5765 5765 5766 5769 5772 5774
5697 5697 5698 5698 5698 5699 5699 5699 5699 5699 5699 5699 5700 5700 5701 5702 5702 5703 5702 5703 5704 5704 5704 5704 5705 5706 5706 5707 5707 5708 5710 5711 5712 5713 5713 5714 5715 5715 5716 5715 5715 5715 5716 5717 5718 5719 5720 5721 5723 5725 5728 5729 5729 5729 5731 5732 5733 5733 5733 5734 5736 5737 5739 5742 5743 5742 5742 5742 5744 5745 5745 5748 5751 5754 5757 5756 5755 5756 5757 5757 5759 5761 5761 5762 5764 5767 5770 5771
5693 5694 5694 5695 5695 5695 5695 5696 5696 5696 5695 5696 5696 5697 5697 5698 5698 5698 5699 5699 5699 5699 5699 5700 5701 5701 5701 5701 5702 5705 5706 5707 5708 5709 5709 5711 5711 5712 5712 5712 5713 5712 5713 5715 5716 5717 5717 5718 5721 5724 5726 5726 5726 5726 5728 5729 5729 5730 5731 5732 5734 5735 5738 5740 5740 5740 5740 5741 5743 5744 5745 5747 5749 5752 5755 5754 5752 5752 5753 5753 5755 5758 5758 5760 5762 5765 5767 5769
5690 5690 5691 5691 5692 5692 5692 5692 5692 5692 5692 5692 5693 5693 5694 5694 5694 5694 5695 5695 5695 5695 5695 5696 5696 5698 5698 5697 5698 5701 5702 5703 5705 5705 5706 5708 5708 5709 5709 5709 5710 5710 5711 5712 5713 5714 5714 5716 5721 5723 5723 5723 5723 5723 5724 5725 5727 5728 5729 5730 5732 5734 5737 5738 5737 5737 5737 5738 5740 5741 5742 5744 5747 5750 5751 5750 5749 5749 5750 5751 5753 5755 5756 5758 5760 5763 5765 5767
5686 5687 5687 5688 5688 5689 5689 5689 5689 5689 5689 5689 5689 5689 5690 5690 5690 5690 5691 5692 5691 5690 5692 5692 5693 5694 5694 5693 5694 5697 5699 5701 5702 5702 5703 5704 5705 5706 5706 5707 5707 5708 5708 5708 5709 5711 5712 5716 5720 5720 5719 5720 5720 5720 5722 5723 5724 5726 5727 5728 5730 5733 5735 5736 5735 5735 5735 5735 5737 5738 5739 5741 5745 5747 5748 5747 5747 5748 5748 5749 5751 5752 5754 5756 5758 5761 5764 5766
5683 5684 5684 5685 5685 5685 5685 5686 5686 5686 5686 5686 5686 5686 5686 5686 5687 5687 5688 5689 5688 5687 5688 5688 5689 5691 5691 5690 5691 5693 5695 5697 5698 5699 5700 5701 5702 5702 5703 5704 5705 5705 5705 5706 5707 5708 5711 5715 5716 5715 5716 5717 5718 5718 5719 5721 5722 5724 5725 5726 5729 5731 5732 5733 5734 5733 5732 5733 5735 5736 5736 5738 5743 5745 5745 5746 5745 5746 5746 5747 5748 5749 5751 5754 5756 5759 5762 5764
5680 5681 5681 5682 5682 5682 5682 5683 5683 5683 5683 5683 5683 5682 5682 5683 5683 5684 5684 5686 5685 5684 5684 5684 5685 5687 5687 5687 5688 5689 5691 5693 5695 5696 5697 5699 5699 5699 5700 5701 5702 5703 5704 5705 5705 5706 5710 5712 5711 5712 5714 5715 5716 5716 5717 5719 5720 5721 5722 5724 5727 5729 5729 5731 5732 5731 5730 5731 5733 5734 5733 5736 5740 5742 5743 5744 5743 5743 5744 5744 5745 5746 5749 5751 5754 5757 5760 5762
5677 5678 5678 5679 5679 5679 5679 5680 5680 5680 5679 5680 5680 5678 5679 5679 5680 5681 5681 5682 5682 5682 5681 5681 5682 5682 5682 5683 5685 5686 5687 5690 5693 5693 5695 5697 5696 5696 5697 5698 5699 5701 5702 5703 5702 5704 5708 5708 5708 5710 5712 5712 5713 5714 5715 5716 5718 5719 5721 5723 5725 5726 5726 5728 5729 5728 5728 5730 5731 5731 5731 5733 5737 5739 5740 5741 5741 5742 5742 5742 5743 5745 5747 5750 5753 5756 5758 5760
5674 5675 5675 5676 5676 5675 5676 5676 5676 5677 5676 5677 5676 5675 5676 5677 5678 5678 5678 5678 5680 5680 5679 5679 5678 5679 5679 5681 5682 5683 5684 5687 5689 5690 5692 5693 5693 5694 5694 5695 5697 5698 5699 5699 5699 5703 5706 5705 5706 5708 5709 5710 5712 5713 5713 5714 5715 5717 5719 5720 5721 5722 5723 5724 5725 5725 5726 5728 5728 5728 5729 5731 5735 5737 5738 5739 5739 5740 5740 5740 5742 5744 5746 5749 5752 5755 5757 5758
5671 5672 5672 5673 5672 5672 5673 5673 5673 5673 5673 5674 5673 5673 5674 5675 5675 5675 5675 5676 5677 5677 5677 5676 5675 5676 5676 5677 5679 5680 5682 5683 5685 5687 5689 5690 5691 5691 5692 5693 5695 5696 5696 5696 5698 5702 5703 5702 5704 5706 5706 5708 5709 5710 5711 5712 5714 5716 5716 5717 5718 5719 5720 5720 5721 5722 5723 5725 5726 5726 5727 5729 5733 5735 5736 5737 5737 5738 5739 5739 5741 5743 5745 5748 5751 5753 5755 5756
5668 5668 5669 5670 5669 5669 5670 5670 5670 5670 5670 5671 5670 5671 5671 5672 5671 5672 5672 5674 5674 5674 5673 5673 5672 5673 5673 5674 5676 5678 5679 5680 5682 5683 5685 5686 5687 5688 5690 5691 5693 5694 5693 5694 5697 5699 5699 5700 5702 5702 5703 5705 5707 5708 5708 5709 5711 5713 5713 5714 5714 5715 5716 5716 5718 5719 5720 5721 5723 5725 5725 5727 5730 5732 5733 5734 5735 5736 5738 5739 5740 5742 5744 5747 5749 5751 5753 5754
5665 5665 5666 5666 5666 5665 5666 5667 5667 5667 5667 5667 5667 5668 5669 5668 5668 5669 5670 5671 5671 5670 5669 5670 5670 5671 5671 5671 5673 5675 5676 5677 5679 5680 5681 5683 5684 5686 5687 5688 5690 5690 5689 5691 5695 5695 5696 5698 5698 5699 5701 5704 5705 5705 5705 5707 5709 5709 5709 5710 5711 5712 5713 5714 5715 5716 5716 5718 5721 5724 5724 5725 5727 5730 5731 5732 5733 5734 5736 5737 5739 5741 5743 5745 5747 5749 5751 5752
5662 5662 5663 5663 5663 5662 5663 5664 5663 5663 5664 5664 5664 5665 5665 5665 5666 5667 5667 5667 5667 5666 5667 5668 5669 5670 5670 5669 5670 5671 5673 5674 5675 5677 5679 5680 5682 5683 5684 5685 5686 5687 5687 5689 5692 5693 5694 5695 5695 5697 5700 5702 5702 5702 5703 5705 5706 5706 5707 5708 5709 5709 5710 5711 5712 5713 5713 5715 5719 5723 5723 5723 5724 5727 5729 5730 5730 5732 5734 5735 5737 5739 5741 5743 5745 5747 5748 5750
5658 5659 5659 5660 5660 5660 5660 5660 5660 5660 5661 5661 5661 5662 5662 5662 5663 5664 5664 5664 5664 5664 5664 5665 5666 5668 5668 5668 5668 5668 5669 5671 5672 5673 5675 5677 5679 5680 5681 5682 5684 5685 5685 5688 5691 5691 5691 5692 5693 5696 5698 5699 5700 5700 5701 5702 5703 5704 5705 5706 5706 5707 5707 5708 5709 5710 5710 5713 5719 5721 5721 5720 5722 5725 5727 5728 5728 5730 5731 5733 5735 5737 5739 5741 5742 5744 5746 5748
5655 5656 5656 5656 5657 5657 5657 5657 5657 5657 5658 5659 5658 5659 5659 5660 5660 5662 5661 5661 5661 5662 5662 5662 5663 5665 5666 5667 5668 5667 5667 5668 5669 5670 5672 5674 5676 5678 5679 5680 5681 5682 5683 5686 5689 5689 5689 5690 5692 5694 5695 5696 5698 5698 5699 5700 5700 5701 5702 5703 5704 5704 5704 5705 5706 5707 5708 5712 5717 5719 5718 5718 5719 5722 5725 5726 5726 5727 5729 5730 5732 5734 5736 5738 5740 5742 5744 5746
5652 5653 5653 5653 5654 5654 5654 5655 5654 5654 5655 5656 5656 5656 5656 5657 5658 5659 5658 5658 5658 5659 5659 5660 5661 5661 5663 5665 5666 5666 5666 5666 5667 5668 5669 5671 5673 5675 5677 5677 5678 5679 5681 5683 5685 5685 5687 5688 5690 5692 5693 5694 5695 5696 5697 5698 5698 5699 5700 5701 5701 5702 5702 5703 5704 5705 5707 5710 5713 5715 5715 5715 5716 5720 5722 5723 5724 5725 5727 5727 5729 5731 5733 5735 5737 5739 5741 5742
5650 5650 5650 5650 5650 5651 5652 5652 5652 5651 5652 5653 5653 5653 5654 5655 5655 5655 5655 5654 5655 5655 5657 5658 5658 5658 5659 5661 5663 5664 5664 5664 5665 5666 5667 5669 5671 5673 5674 5674 5675 5677 5678 5680 5681 5682 5684 5686 5687 5690 5691 5692 5693 5695 5695 5696 5696 5697 5698 5698 5699 5700 5700 5701 5702 5703 5705 5708 5710 5712 5712 5712 5714 5717 5720 5722 5723 5724 5725 5725 5726 5727 5729 5731 5734 5735 5737 5739
5647 5647 5647 5648 5648 5648 5649 5649 5649 5649 5649 5650 5650 5651 5651 5652 5652 5651 5651 5651 5652 5653 5655 5655 5656 5656 5656 5658 5659 5660 5662 5662 5663 5663 5665 5666 5668 5670 5672 5672 5673 5674 5675 5676 5678 5680 5682 5683 5685 5687 5688 5689 5691 5692 5693 5693 5694 5695 5695 5696 5697 5698 5699 5700 5701 5702 5703 5705 5707 5708 5709 5709 5712 5715 5717 5720 5722 5723 5724 5724 5724 5725 5726 5727 5729 5729 5731 5733
5645 5645 5645 5645 5646 5646 5646 5646 5646 5647 5647 5647 5648 5648 5648 5648 5648 5648 5648 5649 5649 5651 5653 5653 5653 5653 5653 5654 5656 5657 5658 5659 5660 5661 5662 5663 5665 5667 5669 5669 5669 5670 5672 5673 5675 5676 5678 5681 5682 5683 5684 5686 5688 5689 5690 5691 5692 5693 5694 5695 5696 5697 5697 5699 5700 5700 5701 5702 5703 5705 5706 5708 5710 5712 5714 5717 5720 5721 5722 5722 5722 5723 5724 5725 5725 5724 5724 5727
5642 5642 5643 5644 5643 5643 5644 5644 5644 5644 5644 5645 5645 5645 5645 5645 5645 5646 5646 5646 5647 5648 5651 5651 5650 5650 5651 5652 5653 5654 5655 5656 5657 5659 5660 5660 5662 5664 5665 5666 5667 5667 5668 5670 5672 5673 5676 5679 5679 5680 5682 5684 5685 5686 5687 5688 5690 5691 5693 5694 5695 5695 5696 5696 5698 5698 5699 5700 5701 5703 5705 5706 5708 5709 5711 5715 5717 5719 5720 5720 5719 5720 5722 5723 5723 5723 5721 5722
5640 5640 5641 5642 5641 5641 5642 5642 5642 5642 5642 5642 5642 5643 5643 5642 5642 5643 5643 5644 5645 5646 5648 5648 5648 5648 5648 5649 5650 5651 5653 5654 5655 5656 5657 5658 5659 5661 5663 5663 5664 5665 5666 5668 5670 5671 5673 5677 5677 5678 5680 5681 5682 5684 5685 5686 5686 5688 5691 5692 5692 5693 5694 5695 5696 5697 5697 5698 5699 5701 5703 5704 5706 5708 5709 5711 5713 5716 5717 5717 5717 5717 5719 5722 5723 5724 5724 5723
5638 5639 5639 5639 5639 5639 5640 5640 5640 5640 5640 5640 5640 5640 5640 5639 5639 5640 5641 5642 5643 5644 5645 5646 5645 5646 5646 5647 5648 5649 5651 5652 5653 5654 5655 5655 5657 5659 5660 5661 5662 5663 5665 5666 5668 5668 5671 5674 5676 5676 5677 5678 5679 5681 5683 5683 5684 5686 5688 5688 5689 5691 5692 5693 5694 5695 5696 5696 5697 5699 5700 5702 5704 5706 5707 5708 5710 5713 5715 5715 5716 5715 5716 5719 5722 5725 5726 5725
5636 5637 5637 5638 5638 5638 5638 5638 5638 5638 5638 5637 5637 5637 5637 5637 5637 5637 5638 5639 5640 5641 5642 5642 5643 5643 5644 5645 5646 5647 5648 5650 5651 5652 5653 5653 5655 5656 5657 5657 5659 5661 5662 5663 5665 5666 5668 5671 5673 5674 5674 5676 5677 5679 5680 5681 5682 5684 5686 5686 5687 5689 5690 5691 5692 5693 5694 5695 5695 5696 5698 5700 5703 5704 5705 5706 5707 5710 5712 5713 5714 5715 5714 5715 5719 5723 5724 5724
5634 5635 5635 5636 5636 5636 5636 5636 5636 5635 5635 5634 5634 5634 5634 5634 5633 5634 5635 5636 5636 5637 5638 5639 5639 5640 5640 5642 5644 5645 5646 5647 5648 5650 5651 5652 5653 5654 5654 5655 5656 5658 5659 5660 5662 5664 5665 5667 5671 5672 5672 5674 5675 5676 5677 5679 5680 5682 5684 5685 5685 5687 5689 5690 5691 5691 5692 5693 5693 5694 5696 5698 5700 5702 5703 5703 5705 5708 5709 5711 5712 5713 5713 5713 5716 5719 5720 5721
5633 5633 5634 5634 5634 5635 5634 5634 5634 5633 5632 5631 5631 5631 5631 5630 5630 5630 5631 5632 5632 5632 5634 5635 5636 5636 5637 5639 5641 5642 5643 5644 5646 5647 5648 5649 5650 5651 5651 5652 5653 5655 5656 5658 5659 5661 5662 5664 5668 5670 5670 5671 5672 5673 5675 5677 5678 5679 5681 5682 5684 5685 5687 5688 5689 5690 5691 5691 5691 5692 5694 5696 5697 5699 5700 5701 5703 5705 5707 5709 5709 5709 5708 5710 5713 5715 5716 5718
5632 5632 5632 5632 5633 5633 5632 5632 5631 5631 5630 5629 5628 5628 5627 5627 5627 5627 5627 5628 5628 5629 5630 5631 5631 5633 5635 5636 5638 5639 5640 5641 5643 5644 5645 5646 5647 5648 5649 5651 5652 5652 5654 5655 5656 5658 5659 5661 5665 5667 5668 5669 5669 5670 5672 5674 5675 5677 5678 5679 5681 5683 5684 5685 5687 5688 5689 5689 5690 5691 5692 5694 5696 5698 5699 5700 5701 5703 5704 5706 5707 5706 5706 5708 5711 5712 5713 5715
5630 5631 5631 5631 5631 5631 5630 5630 5630 5629 5628 5627 5626 5625 5624 5623 5623 5623 5623 5624 5625 5626 5626 5627 5628 5629 5630 5632 5634 5636 5637 5638 5639 5641 5642 5642 5644 5646 5648 5650 5650 5651 5652 5653 5653 5655 5656 5658 5661 5665 5666 5666 5667 5668 5669 5671 5672 5674 5675 5677 5679 5681 5682 5684 5685 5686 5686 5687 5688 5689 5690 5692 5695 5697 5698 5699 5700 5700 5701 5703 5704 5705 5705 5706 5708 5709 5710 5713
5629 5629 5629 5629 5629 5629 5629 5628 5627 5626 5625 5624 5623 5622 5621 5620 5620 5620 5620 5620 5621 5622 5622 5623 5624 5625 5626 5628 5630 5632 5633 5635 5635 5637 5639 5639 5640 5643 5646 5647 5647 5648 5649 5650 5651 5653 5654 5655 5657 5660 5663 5663 5664 5665 5667 5669 5670 5672 5673 5675 5677 5678 5680 5681 5683 5683 5684 5685 5687 5687 5688 5690 5693 5696 5697 5698 5698 5697 5698 5700 5701 5702 5703 5705 5705 5706 5708 5710
5628 5628 5628 5628 5628 5627 5626 5626 5625 5624 5623 5622 5620 5619 5618 5619 5619 5618 5618 5618 5618 5619 5619 5619 5620 5621 5622 5624 5626 5628 5630 5631 5632 5633 5635 5635 5637 5639 5642 5644 5644 5645 5647 5648 5649 5651 5652 5653 5654 5657 5660 5661 5662 5663 5665 5666 5668 5670 5672 5673 5675 5676 5678 5679 5680 5681 5682 5684 5685 5685 5686 5689 5692 5694 5695 5696 5696 5696 5697 5698 5699 5699 5701 5703 5703 5704 5705 5706
5626 5627 5627 5626 5626 5626 5625 5624 5624 5623 5621 5620 5618 5616 5616 5616 5617 5617 5617 5616 5616 5616 5616 5616 5617 5617 5618 5620 5622 5624 5625 5627 5629 5630 5631 5632 5633 5635 5638 5640 5642 5643 5644 5645 5647 5649 5650 5651 5653 5655 5657 5659 5660 5661 5662 5664 5666 5667 5669 5671 5673 5674 5675 5677 5677 5679 5680 5681 5682 5683 5685 5687 5690 5691 5691 5693 5695 5696 5697 5697 5697 5698 5700 5701 5701 5702 5704 5705
5625 5625 5625 5625 5625 5624 5624 5623 5622 5621 5619 5618 5616 5614 5613 5614 5615 5615 5614 5614 5613 5613 5613 5613 5614 5614 5614 5616 5618 5619 5621 5623 5625 5626 5627 5628 5630 5632 5634 5637 5639 5641 5642 5644 5646 5647 5648 5650 5651 5652 5654 5656 5657 5658 5659 5661 5662 5664 5667 5669 5671 5672 5673 5674 5675 5676 5678 5679 5680 5681 5683 5685 5687 5688 5689 5691 5693 5695 5695 5696 5696 5697 5698 5699 5700 5701 5703 5704
5624 5624 5624 5624 5623 5623 5622 5621 5620 5619 5618 5616 5614 5613 5612 5612 5613 5612 5612 5611 5611 5610 5610 5610 5610 5610 5611 5611 5613 5615 5617 5618 5620 5622 5624 5625 5626 5629 5631 5634 5636 5638 5640 5642 5644 5645 5647 5648 5648 5649 5650 5651 5653 5655 5657 5658 5660 5661 5664 5666 5668 5669 5671 5672 5673 5674 5675 5676 5678 5679 5680 5682 5684 5685 5688 5690 5692 5693 5693 5694 5695 5696 5696 5697 5699 5700 5701 5703
5622 5622 5622 5622 5621 5621 5620 5619 5618 5617 5616 5614 5613 5612 5611 5611 5611 5610 5610 5609 5608 5608 5608 5607 5607 5606 5607 5608 5609 5611 5612 5614 5616 5618 5620 5621 5622 5625 5628 5632 5634 5635 5637 5639 5641 5643 5644 5645 5646 5647 5647 5648 5650 5651 5654 5656 5657 5658 5660 5663 5665 5667 5668 5669 5670 5671 5673 5674 5675 5676 5678 5679 5681 5684 5687 5689 5690 5691 5692 5692 5692 5692 5693 5695 5696 5697 5699 5700
5621 5621 5621 5620 5620 5620 5619 5618 5617 5616 5615 5614 5612 5611 5610 5609 5609 5608 5608 5607 5606 5606 5605 5604 5604 5603 5603 5604 5606 5607 5609 5611 5612 5614 5616 5618 5619 5622 5625 5628 5630 5632 5634 5637 5639 5640 5641 5643 5644 5645 5644 5645 5647 5648 5650 5652 5654 5655 5657 5659 5661 5663 5665 5666 5668 5669 5670 5671 5672 5674 5676 5677 5679 5681 5684 5686 5687 5689 5690 5691 5690 5688 5689 5691 5691 5693 5695 5697
5619 5619 5619 5619 5619 5619 5618 5618 5617 5615 5614 5613 5611 5610 5609 5608 5607 5607 5606 5605 5604 5603 5602 5602 5601 5601 5601 5602 5603 5605 5606 5608 5610 5611 5612 5614 5616 5619 5622 5624 5626 5629 5632 5634 5636 5638 5639 5640 5641 5642 5642 5642 5644 5645 5645 5647 5649 5651 5653 5655 5657 5660 5662 5663 5665 5667 5668 5669 5671 5672 5674 5675 5677 5678 5680 5682 5684 5686 5688 5689 5688 5686 5686 5687 5687 5688 5691 5693